Location: Göttingen
(51.5413°N, 9.9158°E)
Time: 11:36:27
(UTC+02:00)

EO-88 - Pass Details

Date: 08 July 2022
Orbit: 453 x 461 km, 97.3° (Epoch: 13 August)

Event Time Altitude Azimuth Distance (km) Brightness Sun altitude
Exits shadow 23:18:46 - 199° (SSW) 1,850 ? -11.0°
Reaches altitude 10° 23:19:23 10° 203° (SSW) 1,621 ? -11.1°
Maximum altitude 23:22:26 28° 264° (W) 904 ? -11.3°
Drops below altitude 10° 23:25:31 10° 326° (NW) 1,629 ? -11.5°
Sets 23:27:46 0° 338° (NNW) 2,508 ? -11.7°
